CW2157 Weather Reports


Display with metric or nautical units.
time (UTC)temp
F
wind
direction
speed
MPH
gust
MPH
rain 1hr
in
rain 24hr
in
rain mn
in
humidity
%
barometer
mb
20210225184204 51 55 5.0 12.0 0.00 0.00 0.00 51 1021.5
20210225183704 50 35 5.0 12.0 0.00 0.00 0.00 48 1021.5
20210225183210 51 31 6.0 10.0 0.00 0.00 0.00 46 1021.6
20210225182951 51 26 7.0 10.0 0.00 0.00 0.00 46 1021.6
20210225182204 51 40 6.0 13.0 0.00 0.00 0.00 48 1021.7
20210225181707 51 49 7.0 13.0 0.00 0.00 0.00 50 1021.7
20210225181212 51 51 7.0 14.0 0.00 0.00 0.00 48 1021.7
20210225180712 51 13 7.0 10.0 0.00 0.00 0.00 48 1021.8
20210225180204 51 2 3.0 9.0 0.00 0.00 0.00 48 1021.9
20210225175704 51 31 5.0 12.0 0.00 0.00 0.00 49 1021.9
20210225175318 51 39 6.0 10.0 0.00 0.00 0.00 49 1022.0
20210225174704 51 359 7.0 10.0 0.00 0.00 0.00 50 1022.0
20210225174205 51 3 5.0 10.0 0.00 0.00 0.00 51 1022.1
20210225173710 51 18 5.0 12.0 0.00 0.00 0.00 49 1022.2
20210225173209 51 6 4.0 9.0 0.00 0.00 0.00 51 1022.2
20210225172758 51 352 5.0 10.0 0.00 0.00 0.00 52 1022.2
20210225172204 50 342 5.0 10.0 0.00 0.00 0.00 52 1022.2
20210225171704 50 20 6.0 13.0 0.00 0.00 0.00 53 1022.2
20210225171205 50 9 6.0 10.0 0.00 0.00 0.00 52 1022.2
20210225170704 49 25 5.0 12.0 0.00 0.00 0.00 51 1022.1
20210225170204 49 351 7.0 12.0 0.00 0.00 0.00 52 1022.0
20210225165705 49 3 6.0 13.0 0.00 0.00 0.00 53 1022.0
20210225165322 49 19 5.0 13.0 0.00 0.00 0.00 54 1021.9
20210225164705 49 7 6.0 16.0 0.00 0.00 0.00 53 1022.0
20210225164204 49 348 7.0 12.0 0.00 0.00 0.00 52 1022.0
20210225163708 49 345 6.0 12.0 0.00 0.00 0.00 53 1022.0
20210225163206 49 29 8.0 13.0 0.00 0.00 0.00 53 1022.0
20210225162859 49 15 8.0 15.0 0.00 0.00 0.00 54 1021.9
20210225162205 49 18 7.0 15.0 0.00 0.00 0.00 55 1021.9
20210225161706 49 10 6.0 12.0 0.00 0.00 0.00 53 1022.0
20210225161204 49 23 7.0 14.0 0.00 0.00 0.00 55 1022.1
20210225160707 49 1 8.0 14.0 0.00 0.00 0.00 55 1022.1
20210225160204 49 351 7.0 14.0 0.00 0.00 0.00 58 1022.0
20210225155704 48 29 8.0 13.0 0.00 0.00 0.00 58 1021.9
20210225155251 48 6 5.0 12.0 0.00 0.00 0.00 59 1021.9
20210225154704 48 26 7.0 12.0 0.00 0.00 0.00 58 1021.9
20210225154205 48 11 3.0 12.0 0.00 0.00 0.00 59 1022.0
20210225153708 47 18 6.0 10.0 0.00 0.00 0.00 59 1021.9
20210225153214 47 330 7.0 13.0 0.00 0.00 0.00 59 1021.9
20210225152909 47 335 5.0 10.0 0.00 0.00 0.00 58 1021.8
20210225152205 47 0 3.0 13.0 0.00 0.00 0.00 58 1021.7
20210225151704 47 326 10.0 15.0 0.00 0.00 0.00 58 1021.6
20210225151204 47 343 8.0 12.0 0.00 0.00 0.00 58 1021.5
20210225150704 47 346 5.0 12.0 0.00 0.00 0.00 57 1021.5
20210225150204 47 342 4.0 13.0 0.00 0.00 0.00 59 1021.5
20210225145704 47 334 9.0 16.0 0.00 0.00 0.00 58 1021.5
20210225145204 47 3 8.0 16.0 0.00 0.00 0.00 59 1021.5
20210225144704 47 341 10.0 22.0 0.00 0.00 0.00 58 1021.5
20210225144206 47 341 11.0 18.0 0.00 0.00 0.00 60 1021.4
20210225143705 47 348 5.0 14.0 0.00 0.00 0.00 60 1021.4
20210225143204 47 335 9.0 15.0 0.00 0.00 0.00 60 1021.2
20210225142909 47 340 9.0 17.0 0.00 0.00 0.00 60 1021.2
20210225142204 47 353 5.0 13.0 0.00 0.00 0.00 60 1021.0
20210225141704 47 328 9.0 18.0 0.00 0.00 0.00 60 1020.9
20210225141208 47 342 7.0 20.0 0.00 0.00 0.00 59 1020.7
20210225140704 47 337 7.0 17.0 0.00 0.00 0.00 59 1020.6
20210225140203 47 332 9.0 16.0 0.00 0.00 0.00 60 1020.5
20210225135704 47 335 9.0 18.0 0.00 0.00 0.00 60 1020.5
20210225135208 47 350 11.0 18.0 0.00 0.00 0.00 61 1020.4
20210225134705 47 329 6.0 12.0 0.00 0.00 0.00 60 1020.3
20210225134207 47 350 7.0 14.0 0.00 0.00 0.00 60 1020.2
20210225133708 47 330 6.0 14.0 0.00 0.00 0.00 60 1019.9
20210225133210 47 323 8.0 15.0 0.00 0.00 0.00 60 1019.8
20210225132930 47 357 4.0 12.0 0.00 0.00 0.00 60 1019.8
20210225132207 47 318 6.0 13.0 0.00 0.00 0.00 60 1019.6
20210225131707 47 337 5.0 10.0 0.00 0.00 0.00 60 1019.4
20210225131210 46 336 7.0 14.0 0.00 0.00 0.00 60 1019.3
20210225130705 46 314 6.0 14.0 0.00 0.00 0.00 60 1019.3
20210225130204 46 339 5.0 14.0 0.00 0.00 0.00 61 1019.2
20210225125704 46 335 7.0 10.0 0.00 0.00 0.00 60 1019.0
20210225125206 46 339 10.0 13.0 0.00 0.00 0.00 61 1019.0
20210225124706 46 338 4.0 10.0 0.00 0.00 0.00 62 1018.9
20210225124207 46 322 6.0 10.0 0.00 0.00 0.00 61 1018.8
20210225123704 46 230 2.0 5.0 0.00 0.00 0.00 62 1018.6
20210225123208 46 301 3.0 9.0 0.00 0.00 0.00 62 1018.5
20210225122859 46 319 3.0 9.0 0.00 0.00 0.00 62 1018.3
20210225122207 46 276 3.0 9.0 0.00 0.00 0.00 63 1018.2
20210225121757 46 314 3.0 10.0 0.00 0.00 0.00 63 1018.2
20210225121204 46 304 3.0 9.0 0.00 0.00 0.00 62 1018.1
20210225120704 45 323 3.0 12.0 0.00 0.00 0.00 62 1017.9
20210225120208 46 338 8.0 13.0 0.00 0.00 0.00 62 1017.8
20210225115704 46 341 7.0 15.0 0.00 0.00 0.00 62 1017.5
20210225115224 46 324 8.0 13.0 0.00 0.00 0.00 62 1017.4
20210225114735 46 328 6.0 12.0 0.00 0.00 0.00 62 1017.2
20210225114207 46 332 6.0 14.0 0.00 0.00 0.00 61 1017.1
20210225113704 46 340 8.0 20.0 0.00 0.00 0.00 62 1017.0
20210225113206 46 330 10.0 15.0 0.00 0.00 0.00 62 1016.9
20210225112942 46 329 6.0 15.0 0.00 0.00 0.00 63 1016.9
20210225112208 46 327 8.0 14.0 0.00 0.00 0.00 63 1016.8
20210225111709 46 330 5.0 12.0 0.00 0.00 0.00 63 1016.8
20210225111204 46 337 6.0 12.0 0.00 0.00 0.00 63 1016.8
20210225110704 46 308 3.0 9.0 0.00 0.00 0.00 64 1016.7
20210225110206 46 315 2.0 6.0 0.00 0.00 0.00 64 1016.6
20210225105704 47 320 3.0 8.0 0.00 0.00 0.00 63 1016.6
20210225105207 47 331 3.0 7.0 0.00 0.00 0.00 63 1016.4
20210225104706 47 339 3.0 7.0 0.00 0.00 0.00 63 1016.3
20210225104204 47 335 5.0 9.0 0.00 0.00 0.00 63 1016.2
20210225103703 47 330 2.0 7.0 0.00 0.00 0.00 63 1016.0
20210225103210 47 327 4.0 10.0 0.00 0.00 0.00 63 1015.9
20210225102925 48 336 5.0 12.0 0.00 0.00 0.00 63 1015.8
20210225102205 48 327 3.0 8.0 0.00 0.00 0.00 62 1015.6
20210225101713 48 334 5.0 9.0 0.00 0.00 0.00 62 1015.6
20210225101204 48 311 5.0 10.0 0.00 0.00 0.00 62 1015.5
20210225100704 49 329 4.0 12.0 0.00 0.00 0.00 62 1015.4
20210225100204 49 319 6.0 12.0 0.00 0.00 0.00 62 1015.2
20210225095704 49 327 7.0 16.0 0.00 0.00 0.00 62 1015.0
20210225095351 49 318 7.0 14.0 0.00 0.00 0.00 62 1015.0
20210225094705 50 297 7.0 15.0 0.00 0.00 0.00 62 1014.8
20210225094204 50 323 6.0 15.0 0.00 0.00 0.00 62 1014.7
20210225093706 50 319 6.0 16.0 0.00 0.00 0.00 62 1014.6
20210225093208 50 342 7.0 17.0 0.00 0.00 0.00 62 1014.5
20210225092859 50 335 8.0 14.0 0.00 0.00 0.00 62 1014.5
20210225092205 51 310 5.0 15.0 0.00 0.00 0.00 62 1014.4
20210225091704 51 282 8.0 17.0 0.00 0.00 0.00 61 1014.2
20210225091204 51 326 7.0 13.0 0.00 0.00 0.00 62 1013.9
20210225090704 51 322 6.0 12.0 0.00 0.00 0.00 62 1013.9
20210225090205 51 324 3.0 12.0 0.00 0.00 0.00 63 1013.6
20210225085704 51 338 3.0 8.0 0.00 0.00 0.00 63 1013.5
20210225085204 52 326 5.0 12.0 0.00 0.00 0.00 63 1013.4
20210225084705 52 314 5.0 12.0 0.00 0.00 0.00 63 1013.3
20210225084206 52 325 6.0 14.0 0.00 0.00 0.00 63 1013.2
20210225083708 52 336 5.0 13.0 0.00 0.00 0.00 63 1013.0
20210225083204 52 333 4.0 12.0 0.00 0.00 0.00 64 1012.8
20210225082948 52 326 8.0 14.0 0.00 0.00 0.00 64 1012.7
20210225082206 52 321 5.0 12.0 0.00 0.00 0.00 65 1012.6
20210225081706 53 326 5.0 12.0 0.00 0.00 0.00 67 1012.5
20210225081205 52 338 5.0 15.0 0.00 0.00 0.00 68 1012.5
20210225080709 52 312 7.0 12.0 0.00 0.00 0.00 69 1012.4
20210225080212 52 330 3.0 9.0 0.00 0.00 0.00 71 1012.1
20210225075735 51 334 5.0 12.0 0.00 0.00 0.00 71 1011.9
20210225075204 51 331 5.0 8.0 0.00 0.00 0.00 73 1011.9
20210225074704 50 219 2.0 8.0 0.00 0.00 0.00 75 1011.9
20210225074206 49 283 1.0 8.0 0.00 0.00 0.00 78 1011.7
20210225073710 47 320 3.0 12.0 0.00 0.00 0.00 80 1011.6
20210225073206 46 194 1.0 5.0 0.00 0.00 0.00 82 1011.5
20210225072915 45 321 2.0 9.0 0.00 0.00 0.00 82 1011.4
20210225072231 44 313 2.0 5.0 0.00 0.00 0.00 80 1011.4
20210225071713 44 278 1.0 6.0 0.00 0.00 0.00 79 1011.5
20210225071206 44 47 2.0 3.0 0.00 0.00 0.00 78 1011.4
20210225070705 44 227 0.0 1.0 0.00 0.00 0.00 77 1011.3
20210225070204 44 227 0.0 0.0 0.00 0.00 0.00 77 1011.2
20210225065705 44 227 0.0 0.0 0.00 0.00 0.00 76 1011.1
20210225065208 44 227 0.0 0.0 0.00 0.00 0.00 76 1011.1
20210225064707 45 227 0.0 0.0 0.00 0.00 0.00 76 1010.9
20210225064205 45 227 0.0 0.0 0.00 0.00 0.00 75 1010.9
20210225063708 45 227 0.0 0.0 0.00 0.00 0.00 75 1010.9
20210225063203 45 227 0.0 0.0 0.00 0.00 0.00 75 1010.9
20210225062957 45 227 0.0 0.0 0.00 0.00 0.00 75 1010.9
20210225062206 45 227 0.0 0.0 0.00 0.00 0.00 74 1010.8
20210225061706 46 227 0.0 0.0 0.00 0.00 0.00 74 1010.8
20210225061204 46 227 0.0 0.0 0.00 0.00 0.00 74 1010.7
20210225060708 46 227 0.0 0.0 0.00 0.00 0.00 73 1010.6
20210225060215 46 227 0.0 0.0 0.00 0.00 0.00 73 1010.5
20210225055710 47 227 0.0 0.0 0.00 0.00 0.00 73 1010.5
20210225055350 47 227 0.0 1.0 0.00 0.00 0.00 73 1010.4
20210225054727 47 227 0.0 0.0 0.00 0.00 0.00 73 1010.4
20210225054204 47 227 0.0 3.0 0.00 0.00 0.00 73 1010.3
20210225053704 48 226 1.0 3.0 0.00 0.00 0.00 72 1010.2
20210225053208 48 218 1.0 2.0 0.00 0.00 0.00 71 1010.0
20210225052836 48 218 0.0 2.0 0.00 0.00 0.00 71 1010.0
20210225052204 48 218 2.0 3.0 0.00 0.00 0.00 70 1010.1
20210225051704 49 218 2.0 3.0 0.00 0.00 0.00 70 1010.1
20210225051205 49 218 3.0 6.0 0.00 0.00 0.00 71 1010.1
20210225050708 49 229 0.0 3.0 0.00 0.00 0.00 71 1010.2
20210225050207 49 222 3.0 5.0 0.00 0.00 0.00 71 1010.1
20210225045704 49 223 4.0 9.0 0.00 0.00 0.00 71 1010.1
20210225045214 49 216 3.0 9.0 0.00 0.00 0.00 72 1010.1
20210225044706 48 236 7.0 18.0 0.00 0.00 0.00 73 1010.6
20210225044206 48 214 8.0 12.0 0.00 0.00 0.00 74 1009.2
20210225043704 48 219 9.0 14.0 0.00 0.00 0.00 74 1009.1
20210225043208 48 212 11.0 15.0 0.00 0.00 0.00 73 1008.9
20210225042914 48 209 10.0 14.0 0.00 0.00 0.00 74 1008.8
20210225042255 48 203 12.0 18.0 0.00 0.00 0.00 74 1008.8
20210225041722 48 199 10.0 15.0 0.00 0.00 0.00 74 1008.8
20210225041204 48 197 12.0 15.0 0.00 0.00 0.00 74 1008.8
20210225040713 48 199 11.0 15.0 0.00 0.00 0.00 74 1008.8
20210225040205 48 201 10.0 12.0 0.00 0.00 0.00 74 1008.8
20210225035704 48 193 9.0 12.0 0.00 0.00 0.00 75 1008.8
20210225035204 48 192 7.0 12.0 0.00 0.00 0.00 75 1008.8
20210225034704 48 188 7.0 12.0 0.00 0.00 0.00 75 1008.9
20210225034204 48 192 9.0 13.0 0.00 0.00 0.00 75 1008.9
20210225033704 48 181 9.0 16.0 0.00 0.00 0.00 76 1009.0
20210225033339 48 174 9.0 14.0 0.00 0.00 0.00 76 1009.1
20210225033045 48 180 11.0 16.0 0.00 0.00 0.00 76 1009.1
20210225032204 48 178 10.0 14.0 0.00 0.00 0.00 77 1009.1
20210225031707 48 181 10.0 14.0 0.00 0.00 0.00 77 1009.1
20210225031211 48 186 10.0 16.0 0.00 0.00 0.00 77 1009.2
20210225030704 48 185 10.0 16.0 0.00 0.00 0.00 77 1009.3
20210225030204 48 185 10.0 15.0 0.00 0.00 0.00 78 1009.4
20210225025706 48 190 9.0 15.0 0.00 0.00 0.00 78 1009.6
20210225025204 48 188 11.0 18.0 0.00 0.00 0.00 78 1009.5
20210225024707 48 186 10.0 16.0 0.00 0.00 0.00 78 1009.6
20210225024214 48 186 10.0 15.0 0.00 0.00 0.00 77 1009.8
20210225023706 48 190 10.0 14.0 0.00 0.00 0.00 77 1009.8
20210225023204 48 189 9.0 15.0 0.00 0.00 0.00 77 1009.9
20210225022924 48 196 8.0 13.0 0.00 0.00 0.00 77 1009.8
20210225022204 48 182 10.0 16.0 0.00 0.00 0.00 77 1009.9
20210225021704 49 188 9.0 14.0 0.00 0.00 0.00 77 1009.9
20210225021207 49 194 9.0 15.0 0.00 0.00 0.00 77 1010.0
20210225020707 49 196 9.0 13.0 0.00 0.00 0.00 77 1009.9
20210225020210 49 188 9.0 14.0 0.00 0.00 0.00 77 1009.9
20210225015705 49 184 10.0 15.0 0.00 0.00 0.00 77 1009.8
20210225015204 49 188 9.0 16.0 0.00 0.00 0.00 76 1009.7
20210225014706 49 182 9.0 15.0 0.00 0.00 0.00 76 1009.8
20210225014218 50 188 10.0 20.0 0.00 0.00 0.00 76 1009.9
20210225013705 50 191 10.0 16.0 0.00 0.00 0.00 75 1009.9
20210225013257 50 194 10.0 13.0 0.00 0.00 0.00 75 1010.1
20210225013050 50 199 10.0 16.0 0.00 0.00 0.00 75 1010.0
20210225012219 50 185 10.0 17.0 0.00 0.00 0.00 74 1009.7
20210225011704 50 174 10.0 15.0 0.00 0.00 0.00 74 1009.4
20210225011216 50 185 9.0 18.0 0.00 0.00 0.00 74 1009.7
20210225010704 50 176 9.0 18.0 0.00 0.00 0.00 74 1009.9
20210225010211 50 193 10.0 20.0 0.00 0.00 0.00 74 1009.9
20210225005710 50 181 10.0 17.0 0.00 0.00 0.00 73 1009.9
20210225005206 51 191 10.0 20.0 0.00 0.00 0.00 73 1010.0
20210225004709 51 182 12.0 18.0 0.00 0.00 0.00 73 1010.0
20210225004211 51 173 8.0 16.0 0.00 0.00 0.00 73 1010.1
20210225003714 51 187 9.0 18.0 0.00 0.00 0.00 73 1010.0
20210225003246 51 179 9.0 18.0 0.00 0.00 0.00 73 1010.0
20210225003035 51 180 11.0 18.0 0.00 0.00 0.00 73 1010.0
20210225002211 51 176 12.0 18.0 0.00 0.00 0.00 73 1010.0
20210225001711 51 178 12.0 20.0 0.00 0.00 0.00 73 1010.0
20210225001208 51 186 12.0 18.0 0.00 0.00 0.00 73 1010.0
20210225000704 51 180 12.0 23.0 0.00 0.00 0.00 73 1010.0
20210225000208 51 186 12.0 18.0 0.00 0.00 0.00 73 1010.1
20210224235704 51 180 10.0 18.0 0.00 0.00 0.00 73 1010.2
20210224235423 51 172 10.0 14.0 0.00 0.00 0.00 72 1010.3
20210224234715 51 168 8.0 13.0 0.00 0.00 0.00 72 1010.4
20210224234204 52 178 10.0 16.0 0.00 0.00 0.00 72 1010.3
20210224233714 52 190 9.0 15.0 0.00 0.00 0.00 71 1010.4
20210224233205 52 187 9.0 13.0 0.00 0.00 0.00 71 1010.5
20210224232917 52 185 10.0 16.0 0.00 0.00 0.00 70 1010.5
20210224232205 52 176 8.0 16.0 0.00 0.00 0.00 69 1010.4
20210224231732 52 181 9.0 14.0 0.00 0.00 0.00 69 1010.4
20210224231205 52 177 8.0 17.0 0.00 0.00 0.00 68 1010.5
20210224230704 52 187 9.0 15.0 0.00 0.00 0.00 67 1010.5
20210224230207 52 176 10.0 16.0 0.00 0.00 0.00 67 1010.4
20210224225704 52 185 9.0 17.0 0.00 0.00 0.00 67 1010.3
20210224225207 52 188 9.0 16.0 0.00 0.00 0.00 66 1010.3
20210224224704 52 179 9.0 13.0 0.00 0.00 0.00 66 1010.3
20210224224208 52 182 10.0 16.0 0.00 0.00 0.00 65 1010.3
20210224223705 53 177 10.0 17.0 0.00 0.00 0.00 65 1010.3
20210224223204 53 175 9.0 15.0 0.00 0.00 0.00 64 1010.6
20210224222929 53 190 11.0 18.0 0.00 0.00 0.00 64 1010.8
20210224222205 53 184 9.0 16.0 0.00 0.00 0.00 64 1010.8
20210224221707 53 173 11.0 20.0 0.00 0.00 0.00 64 1010.8
20210224221205 53 172 10.0 17.0 0.00 0.00 0.00 63 1010.9
20210224220704 53 183 13.0 18.0 0.00 0.00 0.00 63 1011.1
20210224220207 53 188 11.0 15.0 0.00 0.00 0.00 63 1011.3
20210224215704 53 184 10.0 18.0 0.00 0.00 0.00 63 1011.4
20210224215414 53 194 9.0 18.0 0.00 0.00 0.00 63 1011.4
20210224214707 53 166 9.0 17.0 0.00 0.00 0.00 63 1011.5
20210224214204 53 165 9.0 14.0 0.00 0.00 0.00 62 1011.6
20210224213705 54 180 10.0 22.0 0.00 0.00 0.00 62 1011.7
20210224213205 54 175 10.0 18.0 0.00 0.00 0.00 62 1011.8
20210224212902 54 187 7.0 14.0 0.00 0.00 0.00 61 1011.9
20210224212204 54 178 10.0 16.0 0.00 0.00 0.00 61 1012.0
20210224211711 54 178 11.0 16.0 0.00 0.00 0.00 61 1012.0
20210224211205 54 169 11.0 17.0 0.00 0.00 0.00 60 1012.0
20210224210703 54 179 9.0 17.0 0.00 0.00 0.00 59 1012.1
20210224210210 55 166 10.0 18.0 0.00 0.00 0.00 58 1012.2
20210224205704 55 178 12.0 20.0 0.00 0.00 0.00 58 1012.2
20210224205311 55 177 10.0 18.0 0.00 0.00 0.00 57 1012.5
20210224204704 56 175 9.0 22.0 0.00 0.00 0.00 57 1012.6
20210224204204 56 165 10.0 22.0 0.00 0.00 0.00 57 1013.0
20210224203712 57 176 10.0 17.0 0.00 0.00 0.00 56 1013.2
20210224203204 57 180 10.0 17.0 0.00 0.00 0.00 57 1013.3
20210224202852 57 183 11.0 21.0 0.00 0.00 0.00 55 1013.3
20210224202208 57 189 11.0 20.0 0.00 0.00 0.00 55 1013.4
20210224201705 57 167 10.0 22.0 0.00 0.00 0.00 55 1013.5
20210224201204 57 173 13.0 20.0 0.00 0.00 0.00 55 1013.6
20210224200710 57 172 12.0 23.0 0.00 0.00 0.00 55 1013.5
20210224200209 57 185 12.0 20.0 0.00 0.00 0.00 55 1013.6
20210224195707 57 179 11.0 18.0 0.00 0.00 0.00 55 1013.8
20210224195357 57 178 11.0 20.0 0.00 0.00 0.00 55 1014.0
20210224194708 57 179 11.0 18.0 0.00 0.00 0.00 53 1014.0
20210224194205 57 176 11.0 20.0 0.00 0.00 0.00 54 1014.1
20210224193704 57 180 10.0 21.0 0.00 0.00 0.00 54 1014.2
20210224193206 57 176 10.0 16.0 0.00 0.00 0.00 54 1014.4
20210224192859 57 171 9.0 17.0 0.00 0.01 0.00 54 1014.5
20210224192204 56 172 10.0 17.0 0.00 0.01 0.00 54 1014.5
20210224191705 56 175 13.0 21.0 0.00 0.01 0.00 55 1014.7
20210224191203 56 173 10.0 17.0 0.00 0.01 0.00 55 1014.7
20210224190715 56 170 10.0 26.0 0.00 0.01 0.00 54 1014.9
20210224190209 56 165 10.0 20.0 0.00 0.01 0.00 54 1014.9
20210224185704 56 176 9.0 20.0 0.00 0.02 0.00 55 1015.1
20210224185350 56 174 11.0 25.0 0.00 0.02 0.00 54 1015.3
20210224184705 56 175 12.0 23.0 0.00 0.02 0.00 55 1015.4